Location: Eckley
(40.9930°N, 75.8630°W)
Time: 10:00:59
(UTC-05:00)

Daily predictions for brighter satellites

Satellite Brightness Start Highest point End
(mag) Time Altitude Azimuth Time Altitude Azimuth Time Altitude Azimuth
Meteor 1-21 Rocket 4.4 17:20:54 10° S 17:26:49 81° E 17:32:42 10° NNE
Cosmos 44 4.4 17:25:03 10° S 17:29:37 30° ESE 17:34:02 10° NE
CORIOLIS 4.1 17:24:40 10° SSE 17:29:57 69° ENE 17:35:18 10° N
Cosmos 2333 Rocket 2.7 17:26:04 10° S 17:31:17 40° ESE 17:36:32 10° NE
Cosmos 1766 Rocket 4.1 17:28:09 10° SSW 17:32:35 67° W 17:37:02 10° N
OTV 4 1.5 17:31:31 10° W 17:34:21 41° S 17:37:09 10° ESE
Atlas Centaur 2 4.3 17:36:38 10° WSW 17:40:02 16° SSW 17:43:01 10° SSE
Cosmos 2219 Rocket 2.3 17:35:16 10° S 17:40:49 64° ESE 17:46:24 10° NNE
Cosmos 371 Rocket 3.5 17:36:52 10° S 17:41:32 53° ESE 17:46:13 10° NNE
COSMO-SKYMED 1 3.1 17:39:27 10° NNE 17:43:32 38° E 17:47:34 10° SSE
YAOGAN 1 2.6 17:39:46 10° SSE 17:44:06 86° WSW 17:48:27 10° NNW
Molniya-1 4.2 17:41:43 10° SW 17:44:20 66° NW 17:48:57 10° NNE
CZ-4 R/B 4.4 17:41:46 10° SSE 17:45:54 76° ENE 17:50:02 10° N
Thor Agena Rocket 3.6 17:42:07 10° NNE 17:47:24 89° ESE 17:52:35 10° SSW
SPOT 3 Rocket 3.7 17:42:31 10° SSE 17:47:40 81° WSW 17:52:51 10° NNW
Cosmos 2058 3.9 17:44:17 10° SE 17:47:41 26° E 17:51:06 10° NNE
Cosmos 1125 Rocket 3.7 17:42:44 10° N 17:47:46 47° ENE 17:52:45 10° SE
Cosmos 2278 Rocket 2.5 17:42:44 10° NNW 17:48:10 43° ENE 17:53:32 10° SE
BREEZE-M DEB (TANK) 4.1 17:47:04 10° WNW 17:51:14 49° SW 17:57:01 10° SE
SMAP 3.7 17:47:00 10° S 17:51:36 63° W 17:56:15 10° NNW
Cosmos 2279 Rocket 4.4 17:45:57 10° N 17:51:43 38° ENE 17:57:27 10° SE
USA 116 4.2 17:49:19 10° N 17:52:26 47° WNW 17:55:25 10° SSW
Cosmos 2228 Rocket 3.3 17:48:36 10° N 17:53:02 77° W 17:57:27 10° S
Cosmos 1626 3.9 17:57:19 10° ESE 17:59:17 14° E 17:59:17 14° E
Cosmos 1844 3.8 17:54:06 10° NNW 17:59:54 89° WSW 18:05:42 10° SSE
Cosmos 841 Rocket 4.0 17:55:45 10° SSW 18:00:58 64° WNW 18:06:14 10° NNE
Cosmos 44 Rocket 3.4 17:56:16 10° SSW 18:01:25 89° SE 18:06:30 10° NNE
Cosmos 1340 Rocket 3.7 17:58:30 10° SSE 18:01:53 27° E 18:05:15 10° NNE
Cosmos 1674 4.1 17:58:21 10° SSW 18:01:57 40° WNW 18:05:37 10° N
CENTAUR R/B 3.3 17:57:46 10° WSW 18:03:43 50° NW 18:10:27 10° NNE
IDEFIX/ARIANE 42P 4.0 18:01:04 10° S 18:05:59 42° W 18:10:57 10° NNW
SL-14 R/B 3.2 18:04:19 10° S 18:08:10 61° E 18:12:06 10° NNE
Lacrosse 5 4.0 18:06:43 10° NW 18:09:51 16° NNW 18:12:59 10° NNE
COSMOS 2428 3.9 18:06:57 10° SW 18:12:19 41° WNW 18:17:44 10° N
Cosmos 1484 Rocket 3.0 18:08:53 10° S 18:12:47 75° WSW 18:16:46 10° NNW
Cosmos 2237 Rocket 2.1 18:07:21 10° SSW 18:12:55 70° ESE 18:18:33 10° NNE
CZ-2C R/B 4.4 18:10:41 10° SSW 18:15:10 33° W 18:19:35 10° NNW
Cosmos 1726 2.1 18:12:22 10° N 18:16:08 88° ENE 18:19:55 10° S
Milstar 3 4.4 18:12:10 10° WSW 18:17:38 25° S 18:23:17 10° SE
SL-16 R/B 2.9 18:13:28 10° SSE 18:18:25 32° ESE 18:21:40 19° NE
Cosmos 2151 2.8 18:14:25 10° S 18:18:37 84° E 18:22:50 10° N
Cosmos 1300 2.7 18:16:03 10° N 18:19:54 86° W 18:23:44 10° S
Cosmos 304 Rocket 4.1 18:20:43 10° S 18:25:14 42° ESE 18:28:11 20° NE
Cosmos 2297 4.0 18:22:54 10° NNW 18:28:21 44° ENE 18:33:47 10° SE
Aureole 2 Rocket 2.5 18:27:23 10° S 18:30:58 68° ESE 18:33:25 22° NNE
SKYMED 2 4.1 18:27:22 10° N 18:31:40 61° WNW 18:35:56 10° SSW
Cosmos 1151 Rocket 3.7 18:28:48 10° NNW 18:33:00 57° W 18:37:12 10° S
Cosmos 1805 Rocket 3.6 18:30:05 10° S 18:34:25 54° E 18:38:22 13° NNE
BREEZE M DEB (TANK) 1.6 18:34:51 10° NW 18:37:00 49° N 18:37:00 49° N
Lacrosse 5 rocket 1.1 18:35:17 10° NW 18:39:04 61° NE 18:40:18 39° ESE
Abrixas 2.3 18:36:45 10° SW 18:39:39 71° SSE 18:39:46 70° SE
Meteor 1-28 Rocket 3.8 18:40:49 10° N 18:44:27 56° WNW 18:48:06 10° SSW
Meteor 1-11 4.4 18:40:23 10° SSW 18:46:02 75° W 18:51:49 10° N
Cosmos 372 Rocket 4.5 18:50:03 10° NNW 18:55:04 60° WSW 19:00:04 10° S
Sich 1 3.0 18:51:55 10° S 18:56:18 61° E 18:57:08 50° NE
Cosmos 1633 Rocket 3.0 18:56:28 10° S 19:00:37 59° ESE 19:00:37 59° ESE
FengYun 1-2 T 4.1 18:56:21 10° SSE 19:01:51 68° ENE 19:07:22 10° N
Lacrosse 4 Rocket 3.9 19:00:17 10° N 19:00:22 10° N 19:00:22 10° N
FENGYUN 3A 3.5 19:00:17 10° SSE 19:05:35 68° ENE 19:10:56 10° N
USA 215 3.4 19:01:55 13° SE 19:07:52 75° SW 19:14:27 10° NW
SJ-6B 3.5 19:03:58 10° S 19:07:57 56° W 19:12:01 10° NNW
ALOS 2.1 19:03:57 10° SSE 19:08:36 75° ENE 19:13:16 10° N
OTV 4 3.0 19:07:56 10° WSW 19:09:45 17° SSW 19:09:45 17° SSW
Cosmos 2333 Rocket 3.9 19:10:44 10° WSW 19:15:38 30° NW 19:20:35 10° N
Resurs 01 Rocket 1.7 19:17:34 65° N 19:17:34 65° N 19:21:23 10° NNW
Cosmos 1461 3.1 19:14:33 10° SW 19:18:18 67° WSW 19:18:18 67° WSW
ATLAS 5 CENTAUR R/B 4.5 19:17:40 10° N 19:18:03 11° N 19:18:03 11° N
Cosmos 1703 4.5 19:16:28 10° SSW 19:20:09 40° WNW 19:21:52 26° NNW
Cosmos 1707 Rocket 4.2 19:18:51 10° NNW 19:23:04 52° W 19:27:17 10° S
Cosmos 2219 Rocket 4.4 19:21:05 10° W 19:25:15 21° NW 19:29:24 10° N
Cosmos 2278 Rocket 4.2 19:27:19 10° NW 19:31:57 27° WSW 19:36:35 10° SSW
Cosmos 1666 Rocket 4.5 19:29:08 10° SSW 19:33:18 47° WNW 19:34:05 41° NW
Cosmos 1626 3.8 19:30:54 10° SW 19:34:02 33° W 19:34:02 33° W
Spot 2 Rocket 3.8 19:32:08 10° S 19:37:08 64° WSW 19:42:09 10° NNW
USA 229 DEB 3.6 19:43:09 10° SSW 19:49:29 75° S 19:49:29 75° S
USA 229 3.6 19:43:16 10° SSW 19:49:32 73° S 19:49:32 73° S
Lacrosse 5 4.4 19:52:18 10° NNW 19:52:57 11° NNW 19:52:57 11° NNW
Cosmos 2237 Rocket 4.5 19:53:37 10° W 19:57:33 19° NW 20:01:05 11° N
Aureole 1 Rocket 4.3 19:56:58 10° SSW 20:01:10 54° WSW 20:01:10 54° WSW
SL-16 R/B 3.5 19:57:16 10° SW 20:02:26 36° WNW 20:03:37 33° NNW
Lacrosse 5 rocket 4.5 20:15:38 10° W 20:16:06 12° W 20:16:06 12° W
